Location: ???? ???
(30.5005°N, 60.5936°E)
Time: 13:36:40
(UTC+00:00)

Cosmos 2237 Rocket - Pass Details

Date: 07 June 2020
Orbit: 833 x 851 km, 71.0° (Epoch: 06 July)

Event Time Altitude Azimuth Distance (km) Brightness Sun altitude
Exits shadow 00:10:33 - 202° (SSW) 2,889 4.5 -9.1°
Reaches altitude 10° 00:11:42 10° 202° (SSW) 2,449 4.1 -8.9°
Maximum altitude 00:17:20 80° 289° (WNW) 860 2.2 -7.9°
Drops below altitude 10° 00:23:01 10° 17° (NNE) 2,473 5.4 -6.8°
Sets 00:25:29 0° 19° (NNE) 3,414 6.2 -6.4°
